Location: Artiguedieu
(43.5000°N, 0.5454°E)
Time: 13:01:39
(UTC+00:00)

CZ-2C R/B - Pass Details

Date: 06 December 2020
Orbit: 390 x 585 km, 35.0° (Epoch: 27 January)

Event Time Altitude Azimuth Distance (km) Brightness Sun altitude
Exits shadow 04:47:18 15° 150° (SSE) 1,201 3.4 -26.2°
Drops below altitude 10° 04:48:33 10° 129° (SE) 1,467 4.2 -26.0°
Sets 04:51:03 0° 108° (ESE) 2,292 5.8 -25.6°
